Franklin, PA

9:18 PM EST on November 19, 2019 (GMT -0500)
Venango Regional

Weather History for KFKL - June, 2019

Change the Weather History Date:

Thursday, June 6, 2019

  Actual Average Record
Temperature  
Mean Temperature 66 °F -  
Max Temperature 73 °F 75 °F 95 °F (1934)
Min Temperature 57 °F 50 °F 32 °F (1945)
Cooling Degree Days 2    
Growing Degree Days 16 (Base 50)    
Moisture  
Dew Point 61 °F    
Average Humidity 88    
Maximum Humidity 100    
Minimum Humidity 61    
Precipitation  
Precipitation 0.06 in - - ()
Sea Level Pressure  
Sea Level Pressure 29.86 in    
Wind  
Wind Speed 4 mph (WNW)    
Max Wind Speed 8 mph    
Max Gust Speed -    
Visibility 6 miles    
Events Rain    
Averages and records for this station are not official NWS values.
T = Trace of Precipitation, MM = Missing Value Source: NWS Daily Summary

Daily Weather History Graph

Daily Weather History Graph

Search for Another Location

Airport or City:

Astronomy

Jun. 06, 2019 Rise Set
Actual Time 5:46 AM EDT 8:49 PM EDT
Civil Twilight 5:13 AM EDT 9:23 PM EDT
Nautical Twilight 4:30 AM EDT 10:06 PM EDT
Astronomical Twilight 3:40 AM EDT 10:56 PM EDT
Moon 8:53 AM EDT (6/6) No Moon Set
Length of Visible Light 16h 10m
Length of Day
15h 03m
Waxing Crescent, 13% of the Moon is Illuminated
Jun 6
Waxing Crescent
Jun 10
First Quarter
Jun 17
Full
Jun 25
Last Quarter
Jul 2
New

Hourly Weather History & Observations

Time (EDT) Temp. Dew Point Humidity Pressure Visibility Wind Dir Wind Speed Gust Speed Precip Events Conditions
12:56 AM 64.9 °F 64.0 °F 97% 29.76 in 3.0 mi SW 4.6 mph - N/A   Overcast
1:56 AM 64.9 °F 64.0 °F 97% 29.76 in 3.0 mi SW 5.8 mph - N/A   Overcast
2:43 AM 64.4 °F 64.4 °F 100% 29.77 in 2.5 mi SW 3.5 mph - N/A   Overcast
2:54 AM 64.4 °F 64.4 °F 100% 29.77 in 2.0 mi WSW 3.5 mph - N/A   Overcast
2:56 AM 64.0 °F 64.0 °F 100% 29.75 in 1.8 mi WSW 3.5 mph - N/A   Overcast
3:14 AM 64.4 °F 64.4 °F 100% 29.77 in 2.5 mi SW 4.6 mph - N/A   Overcast
3:35 AM 64.4 °F 64.4 °F 100% 29.77 in 1.5 mi West 3.5 mph - 0.00 in Rain Light Rain
3:46 AM 64.4 °F 64.4 °F 100% 29.77 in 3.0 mi West 5.8 mph - 0.05 in Rain Rain
3:56 AM 64.0 °F 64.0 °F 100% 29.76 in 6.0 mi West 4.6 mph - 0.05 in Rain Light Rain
4:13 AM 64.4 °F 64.4 °F 100% 29.77 in 4.0 mi WNW 3.5 mph - 0.00 in   Overcast
4:28 AM 64.4 °F 64.4 °F 100% 29.77 in 4.0 mi WNW 4.6 mph - 0.00 in   Overcast
4:56 AM 64.0 °F 64.0 °F 100% 29.76 in 5.0 mi WNW 4.6 mph - 0.00 in   Overcast
5:08 AM 64.4 °F 62.6 °F 94% 29.78 in 6.0 mi WNW 4.6 mph - N/A   Overcast
5:33 AM 64.4 °F 62.6 °F 94% 29.79 in 5.0 mi WNW 5.8 mph - N/A   Overcast
5:56 AM 64.0 °F 63.0 °F 96% 29.78 in 2.5 mi NW 4.6 mph - N/A   Overcast
6:04 AM 64.4 °F 62.6 °F 94% 29.80 in 1.8 mi NW 5.8 mph - N/A   Overcast
6:19 AM 62.6 °F 62.6 °F 100% 29.81 in 2.0 mi Variable 4.6 mph - N/A   Overcast
6:39 AM 62.6 °F 62.6 °F 100% 29.81 in 4.0 mi WNW 4.6 mph - 0.00 in   Overcast
6:56 AM 63.0 °F 63.0 °F 100% 29.81 in 4.0 mi WNW 5.8 mph - 0.01 in Rain Light Rain
7:52 AM 62.6 °F 62.6 °F 100% 29.85 in 6.0 mi NW 4.6 mph - 0.00 in   Overcast
7:56 AM 63.0 °F 62.1 °F 97% 29.84 in 5.0 mi NW 5.8 mph - 0.00 in   Overcast
8:05 AM 62.6 °F 62.6 °F 100% 29.86 in 5.0 mi Variable 3.5 mph - N/A   Overcast
8:56 AM 62.1 °F 61.0 °F 96% 29.86 in 5.0 mi NW 4.6 mph - N/A   Overcast
9:13 AM 62.6 °F 60.8 °F 94% 29.87 in 6.0 mi Variable 6.9 mph - N/A   Overcast
9:24 AM 62.6 °F 60.8 °F 94% 29.88 in 8.0 mi Variable 3.5 mph - N/A   Overcast
9:38 AM 62.6 °F 60.8 °F 94% 29.88 in 10.0 mi NNW 4.6 mph - N/A   Overcast
9:49 AM 62.6 °F 60.8 °F 94% 29.89 in 10.0 mi NW 6.9 mph - N/A   Overcast
9:56 AM 62.1 °F 60.1 °F 93% 29.88 in 10.0 mi Variable 4.6 mph - N/A   Overcast
10:40 AM 64.4 °F 60.8 °F 88% 29.90 in 10.0 mi WNW 5.8 mph - N/A   Mostly Cloudy
10:56 AM 64.9 °F 61.0 °F 87% 29.88 in 10.0 mi West 6.9 mph - N/A   Overcast
11:56 AM 66.0 °F 60.1 °F 81% 29.90 in 10.0 mi North 4.6 mph - N/A   Overcast
12:56 PM 68.0 °F 60.1 °F 76% 29.90 in 10.0 mi Calm Calm - N/A   Overcast
1:05 PM 69.8 °F 60.8 °F 73% 29.91 in 10.0 mi Variable 5.8 mph - N/A   Overcast
1:40 PM 71.6 °F 60.8 °F 69% 29.91 in 10.0 mi Calm Calm - N/A   Mostly Cloudy
1:56 PM 70.0 °F 60.1 °F 71% 29.90 in 10.0 mi NNW 5.8 mph - N/A   Overcast
2:08 PM 71.6 °F 60.8 °F 69% 29.91 in 10.0 mi Variable 5.8 mph - N/A   Mostly Cloudy
2:56 PM 73.0 °F 60.1 °F 64% 29.90 in 10.0 mi WSW 6.9 mph - N/A   Mostly Cloudy
3:56 PM 72.0 °F 57.9 °F 61% 29.89 in 10.0 mi WNW 8.1 mph - N/A   Overcast
4:56 PM 73.0 °F 60.1 °F 64% 29.89 in 10.0 mi Variable 6.9 mph - N/A   Clear
5:46 PM 71.6 °F 60.8 °F 69% 29.91 in 10.0 mi Variable 6.9 mph - N/A   Mostly Cloudy
5:56 PM 72.0 °F 61.0 °F 68% 29.89 in 10.0 mi Variable 4.6 mph - N/A   Mostly Cloudy
6:26 PM 71.6 °F 60.8 °F 69% 29.91 in 10.0 mi Variable 4.6 mph - N/A   Partly Cloudy
6:56 PM 71.1 °F 59.0 °F 66% 29.90 in 10.0 mi NW 4.6 mph - N/A   Partly Cloudy
7:56 PM 68.0 °F 57.9 °F 70% 29.91 in 10.0 mi NW 4.6 mph - N/A   Clear
8:56 PM 64.9 °F 57.9 °F 78% 29.93 in 10.0 mi Calm Calm - N/A   Clear
9:31 PM 62.6 °F 57.2 °F 82% 29.95 in 1.8 mi Calm Calm - N/A   Haze
9:47 PM 62.6 °F 57.2 °F 82% 29.95 in 1.0 mi Calm Calm - N/A   Haze
9:56 PM 62.1 °F 57.0 °F 84% 29.95 in 1.0 mi Calm Calm - N/A   Haze
10:02 PM 60.8 °F 57.2 °F 88% 29.96 in 2.5 mi North 3.5 mph - N/A   Clear
10:10 PM 60.8 °F 57.2 °F 88% 29.96 in 8.0 mi North 3.5 mph - N/A   Clear
10:56 PM 60.1 °F 57.0 °F 90% 29.96 in 10.0 mi Calm Calm - N/A   Clear
11:56 PM 57.9 °F 55.9 °F 93% 29.95 in 10.0 mi Calm Calm - N/A   Clear